Location: Marsån
(66.4167°N, 22.2833°E)
Time: 09:52:07
(UTC+00:00)

BlueWalker 3 - Pass Details

Date: 24 February 2024
Orbit: 485 x 496 km, 53.2° (Epoch: 15 April)

Event Time Altitude Azimuth Distance (km) Brightness Sun altitude
Rises 18:41:15 0° 243° (WSW) 2,560 6.1 -20.1°
Reaches altitude 10° 18:45:01 10° 205° (SSW) 1,675 4.6 -20.4°
Enters shadow 18:45:28 11° 198° (SSW) 1,642 4.5 -20.5°
